TimeEST,TemperatureF,Dew PointF,Humidity,Sea Level PressureIn,VisibilityMPH,Wind Direction,Wind SpeedMPH,Gust SpeedMPH,PrecipitationIn,Events,Conditions,WindDirDegrees,DateUTC
12:54 AM,34.0,21.9,61,30.05,10.0,West,4.6,-,N/A,,Clear,260,2011-12-29 05:54:00
1:54 AM,33.8,23.0,65,30.04,10.0,WSW,4.6,-,N/A,,Clear,250,2011-12-29 06:54:00
2:54 AM,30.0,21.9,72,30.06,10.0,NNW,5.8,-,N/A,,Clear,340,2011-12-29 07:54:00
3:54 AM,33.1,23.0,66,30.04,10.0,Calm,Calm,-,N/A,,Clear,0,2011-12-29 08:54:00
4:54 AM,33.1,23.0,66,30.05,10.0,Calm,Calm,-,N/A,,Clear,0,2011-12-29 09:54:00
5:54 AM,30.2,23.0,75,30.05,10.0,North,3.5,-,N/A,,Clear,10,2011-12-29 10:54:00
6:54 AM,32.0,24.1,73,30.07,10.0,NW,3.5,-,N/A,,Clear,310,2011-12-29 11:54:00
7:54 AM,30.9,24.1,76,30.08,10.0,Calm,Calm,-,N/A,,Clear,0,2011-12-29 12:54:00
8:54 AM,34.0,26.1,73,30.09,10.0,Calm,Calm,-,0.01,,Clear,0,2011-12-29 13:54:00
9:54 AM,37.0,28.0,70,30.10,10.0,Calm,Calm,-,N/A,,Clear,0,2011-12-29 14:54:00
10:54 AM,39.0,28.0,65,30.09,10.0,Calm,Calm,-,N/A,,Overcast,0,2011-12-29 15:54:00
11:54 AM,41.0,28.4,61,30.03,10.0,South,4.6,-,N/A,,Mostly Cloudy,180,2011-12-29 16:54:00
12:54 PM,43.0,27.0,53,30.02,10.0,Calm,Calm,-,N/A,,Mostly Cloudy,0,2011-12-29 17:54:00
1:54 PM,44.1,28.0,53,29.99,10.0,SSE,3.5,-,N/A,,Partly Cloudy,150,2011-12-29 18:54:00
2:54 PM,46.0,27.0,47,29.97,10.0,SSE,4.6,-,N/A,,Scattered Clouds,150,2011-12-29 19:54:00
3:54 PM,45.0,24.1,44,29.97,10.0,SSE,9.2,-,N/A,,Scattered Clouds,150,2011-12-29 20:54:00
4:54 PM,44.1,21.9,42,29.97,10.0,SSE,9.2,-,N/A,,Clear,150,2011-12-29 21:54:00
5:54 PM,39.9,23.0,51,29.99,10.0,SE,8.1,-,N/A,,Clear,140,2011-12-29 22:54:00
6:54 PM,41.0,21.9,47,30.00,10.0,ENE,4.6,-,N/A,,Clear,70,2011-12-29 23:54:00
7:54 PM,41.0,21.2,45,29.99,10.0,East,3.5,-,N/A,,Clear,90,2011-12-30 00:54:00
8:54 PM,34.0,23.0,64,30.01,10.0,Calm,Calm,-,N/A,,Clear,0,2011-12-30 01:54:00
9:54 PM,32.0,23.0,69,30.01,10.0,Calm,Calm,-,N/A,,Clear,0,2011-12-30 02:54:00
10:54 PM,30.9,23.0,72,30.01,10.0,Calm,Calm,-,N/A,,Clear,0,2011-12-30 03:54:00
11:54 PM,32.0,24.1,73,30.01,10.0,NE,3.5,-,N/A,,Clear,50,2011-12-30 04:54:00